Location: Slemon Park
(46.4340°N, 63.8219°W)
Time: 05:58:45
(UTC-04:00)

Daily predictions for brighter satellites

Satellite Brightness Start Highest point End
(mag) Time Altitude Azimuth Time Altitude Azimuth Time Altitude Azimuth
Cosmos 2369 Rocket 4.2 03:50:06 25° E 03:50:06 25° E 03:52:59 10° ESE
Cosmos 1943 Rocket 3.9 04:14:32 25° NE 04:14:53 26° NE 04:19:26 10° ESE
CZ-4C R/B 4.5 04:19:38 18° N 04:19:38 18° N 04:24:10 10° NE
SL-16 R/B 4.2 04:47:15 17° N 04:47:15 17° N 04:48:35 10° NNE
Lacrosse 5 2.5 04:52:22 52° NE 04:52:22 52° NE 04:56:14 10° NE
COSMO-SKYMED 1 3.8 04:47:07 10° SE 04:51:07 38° ENE 04:51:22 38° ENE
Feng Yun 1-1 Rocket 4.3 04:47:57 10° NNE 04:53:33 73° ESE 04:58:58 10° S
Cosmos 1610 Rocket 4.5 04:47:48 10° S 04:54:01 80° E 05:00:20 10° N
Cosmos 1536 4.4 04:51:13 10° SSE 04:55:26 34° ENE 04:58:34 10° NNE
Cosmos 44 3.7 05:02:31 59° S 05:03:17 68° ESE 05:08:25 10° NE
Cosmos 2263 4.1 05:04:13 67° N 05:04:58 80° ENE 05:10:34 10° SSE
CENTAUR R/B 3.7 05:09:10 30° NNW 05:09:10 30° NNW 05:14:58 10° NNE
Okean 1-7 Rocket 4.4 05:14:41 42° S 05:14:41 42° S 05:17:35 10° S
Cosmos 1340 4.2 05:12:17 29° NE 05:13:19 34° ENE 05:16:47 10° SE
Lacrosse 5 rocket 3.4 05:14:12 20° NNE 05:14:12 20° NNE 05:17:01 10° ENE
Meteor 2-13 Rocket 4.4 05:11:13 10° S 05:17:23 85° E 05:23:34 10° N
Meteor 1-19 Rocket 4.1 05:17:58 45° NNW 05:19:50 75° W 05:25:34 10° S
Ariane Rocket 4.2 05:15:56 10° NNE 05:20:44 41° E 05:25:30 10° S
Nadezhda 3 Rocket 3.9 05:19:20 15° NNW 05:24:46 73° W 05:31:05 10° S
Celestis-02/Orion 38 4.5 05:21:16 10° SSE 05:26:30 81° WSW 05:28:09 46° NW
ATLAS 5 CENTAUR R/B 4.1 05:25:17 15° N 05:27:38 18° NNE 05:31:42 10° ENE
CRYOSAT 2 4.2 05:22:47 10° S 05:27:39 66° W 05:27:52 65° WNW
Cosmos 2369 Rocket 2.4 05:31:57 48° WSW 05:32:08 48° WSW 05:37:34 10° S
DMSP B5D1-3 4.5 05:30:40 10° SSE 05:35:50 87° ENE 05:39:59 16° NNW
ATLAS 3B R/B 4.3 05:32:06 15° NNW 05:35:56 23° NNE 05:41:14 10° ENE
Meteor 1-11 Rocket 3.6 05:32:30 10° SSW 05:38:15 66° WNW 05:43:55 10° N
SKYMED 2 3.4 05:34:47 10° S 05:39:06 70° WSW 05:39:57 54° NW
Cosmos 962 Rocket 4.4 05:33:50 10° S 05:40:03 83° W 05:46:24 10° N
Meteor 1-23 Rocket 4.0 05:36:59 16° NNW 05:41:33 78° W 05:47:06 10° S
Meteor 2-4 Rocket 3.6 05:38:03 22° NNW 05:41:42 68° W 05:47:21 10° S
Cosmos 1603 4.4 05:42:23 34° NW 05:42:23 34° NW 05:46:58 10° NNE
Lacrosse 4 Rocket 1.3 05:43:15 48° NNW 05:44:20 83° ENE 05:48:24 10° SSE
Cosmos 1025 Rocket 2.9 05:43:54 49° NW 05:44:48 63° W 05:49:04 10° S
ADEOS II 4.0 05:44:32 10° N 05:45:35 15° NNW 05:45:35 15° NNW
GRACE-2 4.4 05:51:00 41° NNE 05:51:41 58° E 05:54:26 10° S
GRACE-1 4.3 05:51:29 44° NNE 05:52:06 60° E 05:54:52 10° S
Meteor 1-5 Rocket 4.1 05:47:17 10° S 05:52:36 82° E 05:57:55 10° NNE
Cosmos 1943 Rocket 2.1 05:56:05 27° NW 05:59:02 60° WSW 06:04:27 10° S
Cosmos 839 Rocket 4.0 05:56:09 22° NW 06:00:36 74° WSW 06:06:41 10° SSE
Meteor 2-8 Rocket 4.4 05:54:36 10° NNW 06:00:47 77° W 06:06:55 10° S
Cosmos 2341 Rocket 4.0 05:55:05 10° SSW 06:01:15 59° WNW 06:07:25 10° N
SL-24 DEB 4.2 05:56:35 10° S 06:01:20 66° W 06:06:08 10° N
Cosmos 1943 3.4 05:57:05 15° SW 06:01:29 48° WNW 06:06:58 10° NNE
Cosmos 1452 Rocket 4.2 06:00:58 31° W 06:01:53 33° WSW 06:06:34 10° SSW
Cosmos 44 Rocket 4.1 06:02:37 30° WNW 06:03:22 32° NW 06:07:56 10° NNE
SL-27 R/B 4.3 06:02:54 10° S 06:06:11 35° ESE 06:09:32 10° NE
Abrixas rocket 2.3 06:05:41 48° WNW 06:06:23 63° N 06:09:44 10° ENE
CZ-4C R/B 4.0 06:04:49 12° NNW 06:10:18 32° NNE 06:16:56 10° E
Cosmos 1515 4.2 06:06:42 10° N 06:10:31 62° ENE 06:14:18 10° SSE
Cosmos 1602 Rocket 4.4 06:08:43 10° N 06:13:07 53° ENE 06:17:28 10° SSE
CSL-04 DEB 4.3 06:09:17 10° N 06:13:22 66° WNW 06:17:31 10° SSW
SL-24 R/B 4.3 06:08:57 10° N 06:14:15 72° WNW 06:18:44 10° SSW
CZ-3 R/B 3.8 06:09:44 10° SW 06:14:24 14° SSW 06:17:16 10° SSE
IDEFIX/ARIANE 42P 3.9 06:09:44 10° NNE 06:14:41 43° E 06:19:38 10° S
Helios 1B rocket 3.3 06:11:21 10° SSE 06:15:23 51° ENE 06:19:26 10° N
Cosmos 1656 Rocket 3.7 06:10:19 12° NNW 06:15:33 89° ENE 06:21:15 10° SSE
Cosmos 158 Rocket 4.3 06:10:31 10° SSW 06:15:49 73° ESE 06:21:13 10° NNE
Cosmos 1544 Rocket 3.5 06:15:10 10° SSW 06:19:31 68° W 06:23:56 10° N
Tiangong 2 3.6 06:20:01 10° SW 06:20:40 11° SSW 06:21:28 10° SSW
USA 229 DEB 3.7 06:14:26 10° SW 06:21:17 68° NW 06:28:18 10° NE
USA 229 3.7 06:14:32 10° SW 06:21:24 68° NW 06:28:23 10° NE
PAYLOAD A 4.3 06:21:53 10° NNE 06:27:19 83° ESE 06:32:46 10° SSW
COSMO-SKYMED 1 3.7 06:23:59 10° SW 06:27:25 23° W 06:28:33 20° WNW
CZ-2C R/B 3.2 06:23:01 10° NNE 06:28:07 59° E 06:33:04 10° S
Cosmos 1461 2.9 06:25:09 10° SSW 06:29:26 86° SE 06:33:35 10° NE
Cosmos 1536 4.1 06:28:28 10° WSW 06:31:51 20° WNW 06:34:29 10° NNW
Okean 2 4.3 06:31:21 15° NW 06:33:58 29° W 06:37:33 10° SSW
Lacrosse 5 2.7 06:31:36 18° WNW 06:34:35 32° NNW 06:39:11 10° NE
USA 129 2.7 06:33:04 10° SSW 06:35:01 28° W 06:35:01 28° W
NOSS 3-1 (A) 4.2 06:30:12 10° SSW 06:35:55 56° ESE 06:42:20 10° NE
Cosmos 1980 Rocket 4.5 06:35:02 10° N 06:37:57 14° NE 06:40:53 10° ENE
Cosmos 1500 3.1 06:36:39 10° S 06:40:25 89° E 06:44:12 10° N
USA 215 3.3 06:36:42 10° NE 06:43:16 84° NW 06:49:48 10° WSW
Cosmos 2084 3.6 06:39:52 10° WSW 06:43:29 38° NW 06:47:04 10° NNE
Cosmos 1743 3.9 06:40:26 10° SSE 06:44:12 48° E 06:47:59 10° NNE
CZ-4 R/B 1.2 06:40:34 10° N 06:44:30 74° WNW 06:48:22 10° SSW
Cosmos 44 4.4 06:41:02 12° W 06:44:57 27° NW 06:49:15 10° NNE
SL-8 Rocket 4.3 06:39:45 10° SSW 06:45:41 44° WNW 06:51:36 10° N
Meteor 1-12 Rocket 4.2 06:40:05 10° SSW 06:45:43 77° WNW 06:51:26 10° N
SMAP 3.2 06:41:06 10° NNE 06:45:48 81° ESE 06:50:26 10° SSW
Cosmos 1066 Rocket 4.1 06:42:40 10° NNW 06:48:06 80° W 06:53:37 10° S
Cosmos 1340 4.2 06:47:12 14° WNW 06:48:46 18° W 06:51:22 10° SW
Cosmos 1269 Rocket 4.4 06:43:59 10° SW 06:48:57 41° WNW 06:54:00 10° N
CSL-04 Rocket 4.0 06:45:01 10° N 06:50:16 45° WNW 06:55:27 10° SW
Cosmos 1626 Rocket 3.6 06:49:20 10° NNW 06:53:41 57° W 06:57:58 10° S
Lacrosse 5 rocket 2.4 06:49:56 11° NW 06:53:54 41° NNE 06:58:10 10° E
IRS-1A Rocket 4.4 06:48:27 10° N 06:54:05 61° WNW 06:59:49 10° SSW
Cosmos 405 Rocket 2.6 06:55:11 10° NNW 06:58:59 79° W 07:02:42 10° S
Meteor 2-21 4.5 06:53:06 10° S 06:59:18 84° W 07:05:33 10° N
Ariane Rocket 3.8 06:55:14 10° N 06:59:32 29° WNW 07:03:50 10° WSW
Cosmos 2366 rocket 4.3 06:53:51 10° SSW 06:59:55 48° WNW 07:06:04 10° N
CENTAUR R/B 4.3 06:56:42 10° NW 07:01:49 21° N 07:07:18 10° NE
Cosmos 1331 Rocket 4.1 06:59:55 10° NNW 07:04:59 56° WSW 07:10:00 10° S
Cosmos 2251 Rocket 3.6 07:00:09 10° SSW 07:05:32 87° WNW 07:10:58 10° NNE
AQUARIUS 4.2 07:02:44 10° N 07:07:11 61° WNW 07:11:36 10° SSW
Cosmos 1455 Rocket 3.9 07:04:41 10° SW 07:08:25 27° WNW 07:12:10 10° NNW
Cosmos 1697 Rocket 4.2 07:04:48 10° N 07:09:47 30° NE 07:14:45 10° ESE
SJ-12 4.3 07:06:54 10° N 07:10:52 44° WNW 07:14:49 10° SW
CORIOLIS 4.1 07:06:30 10° NNE 07:11:51 77° WNW 07:17:12 10° SSW
ATLAS 5 CENTAUR R/B 3.1 07:08:05 10° NNW 07:13:43 48° NE 07:19:49 10° ESE
MONITOR-E 4.2 07:11:35 10° N 07:14:47 71° WNW 07:17:58 10° SSW
Meteor 2-14 Rocket 4.5 07:09:47 10° S 07:15:56 84° W 07:22:08 10° N
